Showing default

OPS 4682 (SNAPSHOT), 1314

Orbit data source: Space-Track

OPS 4682 (SNAPSHOT), 1314 is an American payload satellite in LEO that was launched on Sat, 03 Apr 1965 UTC via an ATLAS SLV-3 AGENA D launch vehicle from the Air Force Western Test Range (AFWTR). Payload-class satellites include a variety of spacecraft equipped with specific instruments for various scientific and technological missions. These include communications satellites like Starlink; space stations such as the ISS; scientific satellites like the Hubble; Earth observation satellites from companies like Planet Labs, Umbra, and HawkEye 360; GPS; miniature CubeSats for education and research; and military/defense satellites.

Loading next visibility...
Identifier
1314, 1965-027A
Orbit
LEO
Last TLE update
17 hours ago
Origin
Manufacturer
RCA/East Windsor
Mission
Defense Technology
Bus & Motor
SNAP 10 REACTOR, Unknown motor
Mass
2,386 kg wet, 422 kg dry
Launch date (UTC)
1965-04-03 (60 years ago)
Launch vehicle
ATLAS SLV-3 AGENA D
Launch site
Air Force Western Test Range (AFWTR)
Object type
Payload
Rocket body
Debris
Shape & HBR
Cone + Cyl, Unknown HBR
Radar Cross Section
14.538 m², Large (>1 m²)

Expand to show TLE details & history

TLE from 17 hours ago
0 OPS 4682 (SNAPSHOT)
1 01314U 65027A   25193.74780203  .00000014  00000-0  25357-4 0  9991
2 01314  90.2371 358.8376 0032071  95.7465 275.3063 12.91797414587205
Epoch: 2025-07-12T17:56Z
TLE epoch observation values (Epoch: 2025-07-12T17:56:50.095Z)
Latitude
10.63657°
Longitude
158.70363°
Altitude
1,294.322 km
Speed
7.211 km/s
True Right ascension
23h 55m 10s
True Declination
10° 34' 43"
Sunlit
Object was in daylight at epoch
Visualization orbit readout
Latitude
39.10808°
Longitude
158.57133°
Altitude
1,285.691 km
Speed
7.223 km/s
Apparent Right ascension
02h 21m 12s
Apparent Declination
27° 50' 28"
Sunlit
Object is in daylight
Visualization observer readout
Local Sidereal Time
23:15:14
Azimuth
92.895° ESE
Elevation
50.048°
Doppler factor
1
Orbital elements
Apogee altitude
1,316.131 km
Perigee altitude
1,266.937 km
Semi-major axis
7,669.671 km
Eccentricity
0.00321
Inclination
90.2371°
RAAN
358.8376°
Arg. of periapsis
95.7465°
True anomaly
Unknown
Mean anomaly
275.3063°
Eccentric anomaly
Unknown
Mean motion
3.23131 °/min
Orbital period
111.41 mins
BSTAR
0.000025357
Loading maneuver chart data...
Loading SW <> Apogee altitude chart data...
Loading historical data...
Loading historical data...
Loading historical data...
Loading historical data...
Loading historical data...
Loading historical data...
Loading historical data...

OPS 4682 (SNAPSHOT) Visibility forecast

Observer location: undefined°, undefined°

Span
Click to sort rows by Start time (UTC) header in descending order
Start Az.
Max El. time (UTC)
Max El. Az.
Max El.
End time (UTC)
End Az.
7 mins2025-07-13 10:49:24.788Z93.484° ESE2025-07-13 10:50:24.788Z68.814° E37.524°2025-07-13 10:56:24.788Z9.799° NNE
11 mins2025-07-13 12:36:24.788Z227.416° WSW2025-07-13 12:41:24.788Z278.455° WNW26.444°2025-07-13 12:47:24.788Z334.804° NNW
12 mins2025-07-13 22:24:24.788Z25.844° NE2025-07-13 22:29:24.788Z79.606° E31.052°2025-07-13 22:36:24.788Z148.974° SSE
12 mins2025-07-14 00:15:24.788Z342.728° N2025-07-14 00:20:24.788Z290.43° WNW33.026°2025-07-14 00:27:24.788Z217.155° SW
|